sat.trackr.live / text

‹ back to catalog

ONEWEB-0275

NORAD 48993 · 2021-060AC

PAYLOAD ACTIVE UNKNOWN

§ Identity

Operator
Country
UK
Launch date
2021-07-01
Launch site
VOSTO
Launch vehicle
Mass (kg)
RCS (m²)

Purposes: comms

External: N2YO · Heavens-Above · Gunter

§ Orbital elements

Epoch: 2026-09-20T03:35:28.317120Z

Period
109.37 min
Inclination
87.9158°
Eccentricity
0.0002821
Mean motion
13.16595544 rev/d
Perigee alt
1,195.6 km
Apogee alt
1,199.9 km
Semi-major
7,575.9 km
B*
2.4509e-4
RAAN
209.9234°
Arg perigee
83.4739°
Mean anomaly
276.6713°
Rev number
25,205

§ Raw data

ONEWEB-02751 48993U 21060AC  26263.14963330  .00000107  00000+0  24509-3 0  99902 48993  87.9158 209.9234 0002821  83.4739 276.6713 13.16595544252058

JSON: /api/v1/satellites/48993 · /tle

For live sub-satellite position, see the globe view (requires WebGL).

§ Visibility from observer

Set your observer location to see the next 7 days of passes ≥ 10°. The values pass through the URL so the page stays shareable.

No JS? Fill the form by hand. The geolocation button needs JavaScript.